Time,TemperatureF,DewpointF,PressureIn,WindDirection,WindDirectionDegrees,WindSpeedMPH,WindSpeedGustMPH,Humidity,HourlyPrecipIn,Conditions,Clouds,dailyrainin,SoftwareType,DateUTC
2013-02-22 00:08:00,46.1,45.0,29.97,NE,53,10.0,-999.0,95,-99.99,,,0.97,weatherlink.com 1.10,2013-02-22 06:08:00,
2013-02-22 00:23:00,46.3,45.0,29.97,ENE,66,8.0,-999.0,95,-99.99,,,1.03,weatherlink.com 1.10,2013-02-22 06:23:00,
2013-02-22 00:38:00,46.5,45.0,29.98,NE,46,1.0,-999.0,95,-99.99,,,1.09,weatherlink.com 1.10,2013-02-22 06:38:00,
2013-02-22 00:53:00,46.4,45.0,29.98,NNE,26,1.0,-999.0,95,-99.99,,,1.11,weatherlink.com 1.10,2013-02-22 06:53:00,
2013-02-22 01:08:00,46.3,45.0,29.97,ESE,104,4.0,-999.0,95,-99.99,,,1.19,weatherlink.com 1.10,2013-02-22 07:08:00,
2013-02-22 01:23:00,46.5,46.0,29.97,NE,48,4.0,-999.0,96,-99.99,,,0.00,weatherlink.com 1.10,2013-02-22 07:23:00,
2013-02-22 01:38:00,46.6,46.0,29.98,NW,321,2.0,-999.0,96,-99.99,,,0.00,weatherlink.com 1.10,2013-02-22 07:38:00,
2013-02-22 01:53:00,46.4,45.0,29.98,NNE,31,0.0,-999.0,95,-99.99,,,0.01,weatherlink.com 1.10,2013-02-22 07:53:00,
2013-02-22 02:08:00,46.2,45.0,29.98,ENE,59,0.0,-999.0,95,-99.99,,,0.03,weatherlink.com 1.10,2013-02-22 08:08:00,
2013-02-22 02:23:00,46.2,45.0,29.97,NE,55,2.0,-999.0,96,-99.99,,,0.04,weatherlink.com 1.10,2013-02-22 08:23:00,
2013-02-22 02:38:00,46.2,45.0,29.98,NNE,26,2.0,-999.0,96,-99.99,,,0.04,weatherlink.com 1.10,2013-02-22 08:38:00,
2013-02-22 02:53:00,46.3,45.0,29.98,NE,54,5.0,-999.0,96,-99.99,,,0.04,weatherlink.com 1.10,2013-02-22 08:53:00,
2013-02-22 03:09:00,46.4,45.0,29.98,NE,47,2.0,-999.0,96,-99.99,,,0.04,weatherlink.com 1.10,2013-02-22 09:09:00,
2013-02-22 03:23:00,46.5,46.0,29.97,NE,40,3.0,-999.0,96,-99.99,,,0.04,weatherlink.com 1.10,2013-02-22 09:23:00,
2013-02-22 03:38:00,46.5,46.0,29.96,East,98,6.0,-999.0,96,-99.99,,,0.04,weatherlink.com 1.10,2013-02-22 09:38:00,
2013-02-22 03:53:00,47.1,46.0,29.98,ESE,104,7.0,-999.0,96,-99.99,,,0.04,weatherlink.com 1.10,2013-02-22 09:53:00,
2013-02-22 04:08:00,47.2,46.0,29.99,NNE,13,4.0,-999.0,95,-99.99,,,0.04,weatherlink.com 1.10,2013-02-22 10:08:00,
2013-02-22 04:24:00,47.0,46.0,29.99,NE,55,2.0,-999.0,95,-99.99,,,0.04,weatherlink.com 1.10,2013-02-22 10:24:00,
2013-02-22 04:38:00,47.1,46.0,29.99,NE,34,3.0,-999.0,95,-99.99,,,0.04,weatherlink.com 1.10,2013-02-22 10:38:00,
2013-02-22 04:54:00,47.0,46.0,30.00,ENE,66,4.0,-999.0,95,-99.99,,,0.04,weatherlink.com 1.10,2013-02-22 10:54:00,
2013-02-22 05:09:00,47.0,46.0,30.02,NE,36,3.0,-999.0,95,-99.99,,,0.04,weatherlink.com 1.10,2013-02-22 11:09:00,
2013-02-22 05:23:00,46.9,46.0,30.02,ENE,76,3.0,-999.0,95,-99.99,,,0.04,weatherlink.com 1.10,2013-02-22 11:23:00,
2013-02-22 05:38:00,46.7,45.0,30.01,East,96,4.0,-999.0,95,-99.99,,,0.04,weatherlink.com 1.10,2013-02-22 11:38:00,
2013-02-22 05:54:00,46.7,46.0,30.01,ENE,59,5.0,-999.0,96,-99.99,,,0.04,weatherlink.com 1.10,2013-02-22 11:54:00,
2013-02-22 06:08:00,46.6,46.0,30.02,ENE,65,6.0,-999.0,96,-99.99,,,0.04,weatherlink.com 1.10,2013-02-22 12:08:00,
2013-02-22 06:24:00,46.6,46.0,30.02,North,11,1.0,-999.0,96,-99.99,,,0.04,weatherlink.com 1.10,2013-02-22 12:24:00,
2013-02-22 06:39:00,46.7,46.0,30.03,NNE,30,7.0,-999.0,96,-99.99,,,0.04,weatherlink.com 1.10,2013-02-22 12:39:00,
2013-02-22 06:54:00,46.7,45.0,30.04,North,10,0.0,-999.0,95,-99.99,,,0.04,weatherlink.com 1.10,2013-02-22 12:54:00,
2013-02-22 07:09:00,46.5,46.0,30.04,NE,36,6.0,-999.0,96,-99.99,,,0.04,weatherlink.com 1.10,2013-02-22 13:09:00,
2013-02-22 07:24:00,46.6,46.0,30.05,NNE,30,1.0,-999.0,96,-99.99,,,0.04,weatherlink.com 1.10,2013-02-22 13:24:00,
2013-02-22 07:39:00,46.6,46.0,30.05,NE,51,6.0,-999.0,96,-99.99,,,0.04,weatherlink.com 1.10,2013-02-22 13:39:00,
2013-02-22 07:54:00,46.7,46.0,30.05,NE,40,2.0,-999.0,96,-99.99,,,0.04,weatherlink.com 1.10,2013-02-22 13:54:00,
2013-02-22 08:09:00,46.8,46.0,30.05,NE,55,3.0,-999.0,96,-99.99,,,0.04,weatherlink.com 1.10,2013-02-22 14:09:00,
2013-02-22 08:24:00,46.9,46.0,30.06,NNE,22,2.0,-999.0,96,-99.99,,,0.04,weatherlink.com 1.10,2013-02-22 14:24:00,
2013-02-22 08:39:00,47.0,46.0,30.06,ENE,57,7.0,-999.0,95,-99.99,,,0.04,weatherlink.com 1.10,2013-02-22 14:39:00,
2013-02-22 08:54:00,47.1,46.0,30.05,NE,49,6.0,-999.0,95,-99.99,,,0.04,weatherlink.com 1.10,2013-02-22 14:54:00,
2013-02-22 09:09:00,47.3,46.0,30.06,NNE,30,5.0,-999.0,95,-99.99,,,0.04,weatherlink.com 1.10,2013-02-22 15:09:00,
2013-02-22 09:24:00,47.4,46.0,30.07,ENE,64,2.0,-999.0,95,-99.99,,,0.04,weatherlink.com 1.10,2013-02-22 15:24:00,
2013-02-22 09:39:00,47.6,46.0,30.06,NE,49,3.0,-999.0,95,-99.99,,,0.04,weatherlink.com 1.10,2013-02-22 15:39:00,
2013-02-22 09:54:00,48.0,46.0,30.06,NE,54,5.0,-999.0,94,-99.99,,,0.04,weatherlink.com 1.10,2013-02-22 15:54:00,
2013-02-22 10:09:00,48.2,46.0,30.07,ENE,63,5.0,-999.0,93,-99.99,,,0.04,weatherlink.com 1.10,2013-02-22 16:09:00,
2013-02-22 10:24:00,48.4,46.0,30.07,East,90,5.0,-999.0,92,-99.99,,,0.04,weatherlink.com 1.10,2013-02-22 16:24:00,
2013-02-22 10:40:00,48.5,46.0,30.07,ESE,105,4.0,-999.0,91,-99.99,,,0.04,weatherlink.com 1.10,2013-02-22 16:40:00,
2013-02-22 10:54:00,48.8,46.0,30.08,ENE,71,4.0,-999.0,91,-99.99,,,0.04,weatherlink.com 1.10,2013-02-22 16:54:00,
2013-02-22 11:09:00,48.8,46.0,30.08,NE,49,5.0,-999.0,90,-99.99,,,0.04,weatherlink.com 1.10,2013-02-22 17:09:00,
2013-02-22 11:24:00,48.9,46.0,30.07,East,81,5.0,-999.0,90,-99.99,,,0.04,weatherlink.com 1.10,2013-02-22 17:24:00,
2013-02-22 11:39:00,49.1,47.0,30.06,ENE,75,5.0,-999.0,91,-99.99,,,0.04,weatherlink.com 1.10,2013-02-22 17:39:00,
2013-02-22 11:54:00,49.2,47.0,30.06,ENE,58,3.0,-999.0,90,-99.99,,,0.04,weatherlink.com 1.10,2013-02-22 17:54:00,
2013-02-22 12:09:00,49.4,47.0,30.05,NE,51,1.0,-999.0,90,-99.99,,,0.04,weatherlink.com 1.10,2013-02-22 18:09:00,
2013-02-22 12:24:00,49.3,47.0,30.05,NE,46,1.0,-999.0,90,-99.99,,,0.04,weatherlink.com 1.10,2013-02-22 18:24:00,
2013-02-22 12:39:00,49.3,47.0,30.05,NNE,30,1.0,-999.0,90,-99.99,,,0.04,weatherlink.com 1.10,2013-02-22 18:39:00,
2013-02-22 12:54:00,49.4,46.0,30.04,NE,39,2.0,-999.0,89,-99.99,,,0.04,weatherlink.com 1.10,2013-02-22 18:54:00,
2013-02-22 13:09:00,49.5,46.0,30.04,NE,53,1.0,-999.0,89,-99.99,,,0.04,weatherlink.com 1.10,2013-02-22 19:09:00,
2013-02-22 13:24:00,49.5,46.0,30.04,NNE,28,0.0,-999.0,89,-99.99,,,0.04,weatherlink.com 1.10,2013-02-22 19:24:00,
2013-02-22 13:39:00,49.3,47.0,30.03,NE,48,11.0,-999.0,90,-99.99,,,0.04,weatherlink.com 1.10,2013-02-22 19:39:00,
2013-02-22 13:54:00,49.0,46.0,30.02,NE,49,1.0,-999.0,90,-99.99,,,0.04,weatherlink.com 1.10,2013-02-22 19:54:00,
2013-02-22 14:09:00,48.9,46.0,30.02,North,360,6.0,-999.0,91,-99.99,,,0.04,weatherlink.com 1.10,2013-02-22 20:09:00,
2013-02-22 14:24:00,48.5,46.0,30.01,NE,36,8.0,-999.0,91,-99.99,,,0.04,weatherlink.com 1.10,2013-02-22 20:24:00,
2013-02-22 14:39:00,48.5,46.0,30.00,NNE,21,2.0,-999.0,91,-99.99,,,0.04,weatherlink.com 1.10,2013-02-22 20:39:00,
2013-02-22 14:54:00,48.6,46.0,30.00,ENE,74,0.0,-999.0,91,-99.99,,,0.04,weatherlink.com 1.10,2013-02-22 20:54:00,
2013-02-22 15:09:00,48.6,46.0,29.99,NE,44,3.0,-999.0,91,-99.99,,,0.04,weatherlink.com 1.10,2013-02-22 21:09:00,
2013-02-22 15:24:00,48.1,46.0,29.99,North,5,1.0,-999.0,91,-99.99,,,0.04,weatherlink.com 1.10,2013-02-22 21:24:00,
2013-02-22 15:39:00,48.0,46.0,30.01,NE,51,6.0,-999.0,91,-99.99,,,0.04,weatherlink.com 1.10,2013-02-22 21:39:00,
2013-02-22 15:54:00,47.9,46.0,30.03,NNE,28,3.0,-999.0,91,-99.99,,,0.04,weatherlink.com 1.10,2013-02-22 21:54:00,
2013-02-22 16:09:00,47.4,45.0,30.03,NE,44,5.0,-999.0,92,-99.99,,,0.04,weatherlink.com 1.10,2013-02-22 22:09:00,
2013-02-22 16:24:00,46.8,45.0,30.01,NNE,24,8.0,-999.0,93,-99.99,,,0.04,weatherlink.com 1.10,2013-02-22 22:24:00,
2013-02-22 16:40:00,46.2,45.0,30.02,ENE,65,2.0,-999.0,94,-99.99,,,0.04,weatherlink.com 1.10,2013-02-22 22:40:00,
2013-02-22 16:54:00,46.0,44.0,30.03,NE,47,3.0,-999.0,94,-99.99,,,0.04,weatherlink.com 1.10,2013-02-22 22:54:00,
2013-02-22 17:09:00,45.6,44.0,30.05,NNE,26,2.0,-999.0,95,-99.99,,,0.04,weatherlink.com 1.10,2013-02-22 23:09:00,
2013-02-22 17:24:00,45.4,44.0,30.04,NE,35,2.0,-999.0,95,-99.99,,,0.04,weatherlink.com 1.10,2013-02-22 23:24:00,
2013-02-22 17:40:00,45.2,44.0,30.02,ENE,73,2.0,-999.0,95,-99.99,,,0.04,weatherlink.com 1.10,2013-02-22 23:40:00,
2013-02-22 17:54:00,45.2,44.0,30.03,NE,34,5.0,-999.0,95,-99.99,,,0.04,weatherlink.com 1.10,2013-02-22 23:54:00,
2013-02-22 18:09:00,45.2,44.0,30.01,NNE,29,9.0,-999.0,96,-99.99,,,0.04,weatherlink.com 1.10,2013-02-23 00:09:00,
2013-02-22 18:24:00,45.1,44.0,29.96,ENE,60,7.0,-999.0,96,-99.99,,,0.04,weatherlink.com 1.10,2013-02-23 00:24:00,
2013-02-22 18:39:00,45.0,44.0,29.98,ENE,63,5.0,-999.0,96,-99.99,,,0.04,weatherlink.com 1.10,2013-02-23 00:39:00,
2013-02-22 18:54:00,45.0,44.0,30.01,East,82,1.0,-999.0,96,-99.99,,,0.04,weatherlink.com 1.10,2013-02-23 00:54:00,
2013-02-22 19:09:00,45.0,44.0,30.02,NE,48,3.0,-999.0,96,-99.99,,,0.04,weatherlink.com 1.10,2013-02-23 01:09:00,
2013-02-22 19:24:00,44.7,44.0,30.01,NE,49,4.0,-999.0,96,-99.99,,,0.06,weatherlink.com 1.10,2013-02-23 01:24:00,
2013-02-22 19:40:00,44.6,44.0,30.05,NNE,12,1.0,-999.0,96,-99.99,,,0.06,weatherlink.com 1.10,2013-02-23 01:40:00,
2013-02-22 19:55:00,44.5,44.0,30.07,NNW,329,0.0,-999.0,96,-99.99,,,0.06,weatherlink.com 1.10,2013-02-23 01:55:00,
2013-02-22 20:09:00,44.5,44.0,30.07,East,82,2.0,-999.0,96,-99.99,,,0.07,weatherlink.com 1.10,2013-02-23 02:09:00,
2013-02-22 20:25:00,44.4,43.0,30.06,NE,34,3.0,-999.0,96,-99.99,,,0.09,weatherlink.com 1.10,2013-02-23 02:25:00,
2013-02-22 20:40:00,44.3,43.0,30.05,ENE,57,1.0,-999.0,96,-99.99,,,0.10,weatherlink.com 1.10,2013-02-23 02:40:00,
2013-02-22 20:55:00,44.3,43.0,30.06,NE,40,1.0,-999.0,96,-99.99,,,0.10,weatherlink.com 1.10,2013-02-23 02:55:00,
2013-02-22 21:10:00,44.2,43.0,30.04,East,82,5.0,-999.0,96,-99.99,,,0.10,weatherlink.com 1.10,2013-02-23 03:10:00,
2013-02-22 21:25:00,44.0,43.0,30.03,East,86,2.0,-999.0,95,-99.99,,,0.10,weatherlink.com 1.10,2013-02-23 03:25:00,
2013-02-22 21:40:00,44.0,43.0,30.02,ENE,66,7.0,-999.0,95,-99.99,,,0.10,weatherlink.com 1.10,2013-02-23 03:40:00,
2013-02-22 21:55:00,43.9,43.0,30.01,ENE,69,7.0,-999.0,95,-99.99,,,0.10,weatherlink.com 1.10,2013-02-23 03:55:00,
2013-02-22 22:10:00,43.8,43.0,30.00,NNE,30,5.0,-999.0,95,-99.99,,,0.10,weatherlink.com 1.10,2013-02-23 04:10:00,
2013-02-22 22:25:00,43.8,43.0,29.99,NE,45,4.0,-999.0,95,-99.99,,,0.10,weatherlink.com 1.10,2013-02-23 04:25:00,
2013-02-22 22:40:00,43.8,43.0,30.02,NE,51,2.0,-999.0,96,-99.99,,,0.10,weatherlink.com 1.10,2013-02-23 04:40:00,
2013-02-22 22:55:00,43.6,43.0,29.99,NE,55,6.0,-999.0,96,-99.99,,,0.10,weatherlink.com 1.10,2013-02-23 04:55:00,
2013-02-22 23:10:00,43.5,43.0,30.03,NE,41,1.0,-999.0,96,-99.99,,,0.10,weatherlink.com 1.10,2013-02-23 05:10:00,
2013-02-22 23:25:00,43.4,42.0,30.00,ENE,68,8.0,-999.0,96,-99.99,,,0.12,weatherlink.com 1.10,2013-02-23 05:25:00,
2013-02-22 23:40:00,43.3,42.0,30.00,NE,39,4.0,-999.0,96,-99.99,,,0.14,weatherlink.com 1.10,2013-02-23 05:40:00,
2013-02-22 23:55:00,43.2,42.0,29.97,East,88,4.0,-999.0,96,-99.99,,,0.16,weatherlink.com 1.10,2013-02-23 05:55:00,